Vicksburg, LA

11:26 AM CDT on March 25, 2017 (GMT -0500)
Vicksburg Tallulah Regional

Weather History for KTVR - May, 2013

Change the Weather History Date:

Wednesday, May 22, 2013

  Actual Average Record
Temperature  
Mean Temperature 73 °F 74 °F  
Max Temperature 82 °F 86 °F 92 °F (1956)
Min Temperature 64 °F 63 °F 47 °F (1954)
Degree Days  
Heating Degree Days 0 0  
Month to date heating degree days 52 9  
Since 1 July heating degree days 2332 2350  
Cooling Degree Days 8 10  
Month to date cooling degree days 108 157  
Year to date cooling degree days 230 275  
Growing Degree Days 22 (Base 50)    
Moisture  
Dew Point 67 °F    
Average Humidity 85    
Maximum Humidity 100    
Minimum Humidity 69    
Precipitation  
Precipitation 0.22 in 0.15 in 3.02 in (1980)
Month to date precipitation 4.43 3.70  
Year to date precipitation 34.67 24.04  
Sea Level Pressure  
Sea Level Pressure 29.94 in    
Wind  
Wind Speed 6 mph (South)    
Max Wind Speed 22 mph    
Max Gust Speed 28 mph    
Visibility 7 miles    
Events Fog , Rain , Thunderstorm    
T = Trace of Precipitation, MM = Missing Value Source: NWS Daily Summary

Daily Weather History Graph

Daily Weather History Graph

Search for Another Location

Airport or City:

Trip Planner

Search our weather history database for the weather conditions in past years. The results will help you decide how hot, cold, wet, or windy it might be!

Date:

Astronomy

May. 22, 2013 Rise Set
Actual Time 6:01 AM CDT 8:00 PM CDT
Civil Twilight 5:34 AM CDT 8:27 PM CDT
Nautical Twilight 5:01 AM CDT 9:01 PM CDT
Astronomical Twilight 4:25 AM CDT 9:36 PM CDT
Moon 5:29 PM CDT (5/22) 3:56 AM CDT (5/22)
Length of Visible Light 14h 53m
Length of Day
13h 58m
Waxing Gibbous, 91% of the Moon is Illuminated
May 22
Waxing Gibbous
May 24
Full
May 31
Last Quarter
Jun 8
New
Jun 16
First Quarter

Hourly Weather History & Observations

Time (CDT) Temp. Heat Index Dew Point Humidity Pressure Visibility Wind Dir Wind Speed Gust Speed Precip Events Conditions
12:02 AM 64.4 °F - 62.6 °F 94% 29.95 in 10.0 mi NNE 15.0 mph 23.0 mph 0.00 in Rain , Thunderstorm Light Thunderstorms and Rain
12:50 AM 66.2 °F - 64.4 °F 94% 29.92 in 8.0 mi ENE 11.5 mph 17.3 mph 0.09 in Rain Rain
12:53 AM 66.0 °F - 64.0 °F 93% 29.94 in 8.0 mi ENE 11.5 mph - 0.09 in Rain Rain
11:53 AM 75.9 °F - 66.9 °F 74% 29.97 in 10.0 mi South 13.8 mph 17.3 mph N/A   Mostly Cloudy
12:53 PM 78.1 °F - 68.0 °F 71% 29.96 in 10.0 mi South 13.8 mph 24.2 mph N/A   Partly Cloudy
1:53 PM 79.0 °F - 68.0 °F 69% 29.94 in 10.0 mi South 12.7 mph 18.4 mph N/A   Scattered Clouds
2:53 PM 81.0 °F 84.1 °F 69.1 °F 67% 29.93 in 10.0 mi SSW 4.6 mph - N/A   Scattered Clouds
3:53 PM 81.0 °F 84.4 °F 70.0 °F 69% 29.91 in 10.0 mi South 10.4 mph - N/A   Scattered Clouds
4:53 PM 80.1 °F 83.2 °F 70.0 °F 71% 29.91 in 10.0 mi South 8.1 mph - N/A   Scattered Clouds
5:53 PM 80.1 °F 83.2 °F 70.0 °F 71% 29.92 in 10.0 mi South 9.2 mph - N/A   Partly Cloudy
6:53 PM 79.0 °F - 70.0 °F 74% 29.92 in 10.0 mi South 6.9 mph - N/A   Scattered Clouds
7:53 PM 75.9 °F - 70.0 °F 82% 29.93 in 10.0 mi SSW 3.5 mph - N/A   Clear
8:53 PM 72.0 °F - 69.1 °F 91% 29.94 in 9.0 mi South 3.5 mph - N/A   Clear
9:53 PM 69.1 °F - 66.9 °F 93% 29.96 in 7.0 mi Calm Calm - N/A   Clear
10:34 PM 68.0 °F - 66.2 °F 94% 29.95 in 1.5 mi Calm Calm - N/A   Clear
10:42 PM 69.8 °F - 66.2 °F 88% 29.95 in 0.5 mi Calm Calm - N/A Fog Fog
10:53 PM 66.0 °F - 66.0 °F 100% 29.97 in 1.5 mi Calm Calm - N/A   Clear
11:04 PM 66.2 °F - 64.4 °F 94% 29.95 in 0.2 mi Calm Calm - N/A Fog Fog
11:53 PM 66.0 °F - 64.0 °F 93% 29.97 in 0.2 mi Calm Calm - N/A Fog Fog